Regional Weather Roundup
Issued by NWS Grand Forks, ND

Home | Current Version | Previous Version | Text Only | Print | Product List | Glossary Off
Versions: 1 2 3 4 5 6 7 8 9 10 11 12 13 14 15 16 17 18 19 20 21 22 23 24 25 26 27 28 29 30 31 32 33 34 35 36 37 38 39 40 41 42 43 44 45 46 47 48 49 50

000
ASUS43 KFGF 260531
RWRFGF
PRAIRIE TO PINES  WEATHER ROUNDUP
NATIONAL WEATHER SERVICE EASTERN NORTH DAKOTA/GRAND FORKS ND
1200 AM CDT FRI AUG 26 2016

 **SATELLITE DATA USED TO AUGMENT SKY COVER AT AUTOMATED STATIONS**
 *****  WEATHER ACROSS EASTERN NORTH DAKOTA  *****

CITY           SKY/WX    TMP DP  RH WIND       PRES   REMARKS
GRAND FORKS    FAIR      51  48  89 CALM      30.05R
GRAND FRKS AFB FAIR      52  49  90 SW6       30.06R
DEVILS LAKE    FAIR      53  50  89 CALM      30.08R
FARGO          FAIR      56  50  80 SW7       30.09R
WAHPETON ARPT  FAIR      52  46  82 SW5       30.13R
$$

 ***** WEATHER ACROSS CENTRAL AND WESTERN NORTH DAKOTA  *****

CITY           SKY/WX    TMP DP  RH WIND       PRES   REMARKS
BISMARCK       FAIR      56  46  69 SW3       30.13S
MINOT          MOCLDY    59  42  53 S7        30.07R
JAMESTOWN      FAIR      56  49  77 SW8       30.11R
MINOT AFB      MOCLDY    55  40  56 S9        30.06R
GARRISON         N/A     48  45  89 CALM      30.09S
WILLISTON      CLOUDY    60  39  45 SW6       30.09S
DICKINSON      FAIR      52  40  63 SW3       30.13S
HETTINGER      FAIR      49  40  71 SE5       30.17F
$$

 *****  OTHER AIRPORT OBSERVATIONS IN OUR AREA  *****

CITY           SKY/WX    TMP DP  RH WIND       PRES   REMARKS
WALHALLA       NOT AVBL
GRAFTON AIRPOR FAIR      50  50 100 S3        30.06S
VALLEY CITY AR NOT AVBL
CANDO          NOT AVBL
CAVALIER APRT  NOT AVBL
GWINNER        NOT AVBL
SHEYENNE NWR     N/A     51  49  93 W3        29.95S
ROLLA          NOT AVBL
 ***** THE ABOVE OBSERVATIONS ARE NON NWS ARE NOT QUALITY
       CONTROLLED AND MAY MIS-REPORT RAIN FOR SNOW...
$$

  *****  WEATHER ACROSS NORTHERN MINNESOTA  *****

CITY           SKY/WX    TMP DP  RH WIND       PRES   REMARKS
FLAG ISLAND    FAIR      61  48  63 CALM      30.03R
WARROAD        FAIR      50  46  87 SW3       30.06R
ROSEAU         FAIR      52  46  82 SW5       30.05S
HALLOCK        FAIR      52  48  87 SE6       30.04S
THF RVR FALLS  FAIR      52  49  89 S5        30.08R
BAUDETTE       FAIR      50  48  93 SW6       30.04S
WASKISH        FAIR      61  52  72 W5        30.07R
CROOKSTON      FAIR      52  46  82 S5        30.08R
STEPHEN NDAWN    N/A     50  48  93 SE3         N/A
GREENBUSH NDAW   N/A     48  46  93 S3          N/A
$$
  *****  WEATHER ACROSS CENTRAL AND WEST MINNESOTA  *****

CITY           SKY/WX    TMP DP  RH WIND       PRES   REMARKS
FOSSTON        FAIR      48  46  93 S7        30.11R
BEMIDJI        FAIR      51  49  95 CALM      30.09R
PARK RAPIDS    FAIR      52  49  89 CALM      30.10R
ELBOW LAKE     FAIR      53  52  95 SW7       30.14S
WADENA         NOT AVBL
DETROIT LAKES  FAIR      59  52  77 W5        30.13R
MOORHEAD       FAIR      57  52  82 S5        30.11R
FERGUS FALLS   FAIR      54  54 100 CALM      30.14S
MORRIS MN      FAIR      54  52  94 W5        30.14R
STAPLES        MOCLDY    54  54 100 SW3       30.13R
$$
  *****  WEATHER ELSEWHERE ACROSS MINNESOTA  *****

CITY           SKY/WX    TMP DP  RH WIND       PRES   REMARKS
DULUTH         CLOUDY    59  53  80 W8        30.06R
INTRNTL FALLS  MOCLDY    54  52  93 CALM      30.05R
ELY            CLOUDY    55  54  94 W5        30.05R
CLOQUET        FAIR      55  52  88 W5        30.08R
WHEATON        FAIR      55  54  94 SW6       30.16R
BRAINERD       FAIR      55  53  93 SW3       30.11R
HIBBING        CLOUDY    56  53  90 NW8       30.06R
ALEXANDRIA     FAIR      56  54  93 SW7       30.15R
SAINT CLOUD    FAIR      59  56  89 W6        30.13R
MINNEAPOLIS    FAIR      63  54  72 SW5       30.13R
$$

  *****  WEATHER ACROSS SOUTH DAKOTA  *****

CITY           SKY/WX    TMP DP  RH WIND       PRES   REMARKS
SIOUX FALLS    FAIR      57  54  89 CALM      30.18S
BROOKINGS      FAIR      54  51  90 SW3       30.18R
WATERTOWN      FAIR      55  52  89 S3        30.17R
HURON          FAIR      53  50  89 CALM      30.19R
SISSETON         N/A     58  53  84 W7        30.13R
ABERDEEN       FAIR      51  48  89 SW6       30.16R
MITCHELL       FAIR      56  52  86 W3        30.21R
PIERRE         FAIR      52  46  80 CALM      30.18S
MOBRIDGE       FAIR      55  47  74 SE3       30.16R
RAPID CITY     FAIR      51  45  79 CALM      30.20R
$$

  *****  SOME WEATHER IN NEARBY STATES *****

CITY           SKY/WX    TMP DP  RH WIND       PRES   REMARKS
GLASGOW MT     FAIR      57  43  59 S8        30.10S
GREAT FALLS MT FAIR      54  38  54 N9        30.19R
CHEYENNE WY    FAIR      55  45  68 S8        30.25S
SCOTTSBLUFF NE CLOUDY    59  47  64 E9        30.20R
OMAHA NE       FAIR      63  60  90 N7        30.15R
DES MOINES IA  FAIR      66  62  87 CALM      30.12S
DAVENPORT IA   FAIR      63  62  97 N3        30.11S
CHICAGO IL     MOCLDY    68  64  87 W5        30.08S
EAU CLAIRE WI  FAIR      57  55  93 CALM      30.09S
LA CROSSE WI   FAIR      67  59  75 NW9       30.11S
$$

  *****  SOME NATIONAL WEATHER *****

CITY           SKY/WX    TMP DP  RH WIND       PRES   REMARKS
LA GUARDIA NY  FAIR      80  71  74 S8        29.98F
RALEIGH NC     FAIR      79  69  71 S6        30.08S
ATLANTA GA     FAIR      79  70  74 S3        30.13S
NEW ORLEANS LA FAIR      82  77  84 NE6       30.05R HX  90
OKLAHOMA CITY  MOCLDY    73  64  73 NE13      30.08R
ALBUQUERQUE NM MOCLDY    72  48  42 SW9       30.19R
SALT LAKE CITY FAIR      71  30  21 SE8       30.01R
LOS ANGELES CA CLOUDY    66  61  84 SW6       29.92R
BOISE ID       FAIR      67  37  33 CALM      29.97F
SEATTLE WA     FAIR      76  50  40 NE8       29.98S
$$

*** WEATHER ACROSS MANITOBA...SASKATCHEWAN AND ONTARIO ***
                ***ONTARIO***

CITY           SKY/WX    TMP DP  RH WIND       PRES   REMARKS
GERALDTON      MOCLDY    52  50  93 W6        29.95R
THUNDER BAY    MOCLDY    59  55  88 NW6       29.96R
SIOUX LOOKOUT  CLEAR     43  43 100 CALM      30.01R
TORONTO        PTCLDY    72  68  88 NW10      29.95R
BIG TROUT LK   CLEAR     55  50  82 W6        29.85S
PICKLE LAKE    NOT AVBL
DRYDEN         CLEAR     52  50  93 W3        30.02R
KENORA         PTCLDY    57  48  72 NW6       30.03R
$$
                *** MANITOBA***

CITY           SKY/WX    TMP DP  RH WIND       PRES   REMARKS
BRANDON        CLEAR     48  46  93 N5        30.04S
DAUPHIN        MOCLDY    57  52  82 SW8       29.99F
ISLAND LAKE    CLEAR     63  54  72 W8        29.88S
PILOT MOUND      N/A     50  45  81 SE5         N/A
THE PAS        PTCLDY    59  52  77 SW5       29.91S
THOMPSON       MOCLDY    59  52  77 VRB2      29.83F
WINNIPEG       CLEAR     54  50  87 SW6       30.03R
LYNN LAKE      CLOUDY    54  52  94 MISG      29.94R
CHURCHILL      CLOUDY    52  48  87 NW7       29.86S
GILLAM         CLOUDY    57  55  94 NE12      29.82R
$$
                ***SASKATCHEWAN***

CITY           SKY/WX    TMP DP  RH WIND       PRES   REMARKS
ESTEVAN        MOCLDY    57  52  82 CALM      30.05F
KINDERSLEY     PTCLDY    52  52 100 W5        30.05S
LLOYDMINSTER   MOCLDY    54  52  94 NW3       30.06F
PRINCE ALBERT  MOCLDY    57  52  82 W6        29.96F
REGINA         CLOUDY    57  52  82 W8        30.04F
YORKTON        CLEAR     57  50  77 S10       30.01S
N. BATTLEFORD  LGT RAIN  55 N/A N/A NW9       30.03F
LA RONGE       TSTM      57  55  94 NW9       29.94R
SASKATOON      MOCLDY    54  54 100 CALM      30.00S
SWIFT CURRENT  CLOUDY    55  52  88 W9        30.07S
$$
NOTE: THESE ARE AUTOMATED STATIONS WITH LIMITED QUALITY CONTROL
      "FAIR" INDICATES FEW OR NO CLOUDS BELOW 12,000 FEET WITH NO
      SIGNIFICANT WEATHER AND/OR OBSTRUCTIONS TO VISIBILITY.
      SKY/WX - SKY CONDITION AND SIGNIFICANT WEATHER.
      TMP - AIR TEMPERATURE.    DP   - DEWPOINT TEMPERATURE.
      RH  - RELATIVE HUMIDITY.  PRES - PRESSURE.
      HX  - HEAT INDEX.         WCI  - WIND CHILL INDEX.
$




USA.gov is the U.S. government's official web portal to all federal, state and local government web resources and services.